Location: Chuathbaluk
(61.5726°N, 159.2454°W)
Time: 17:00:33
(UTC+00:00)

ITAMSAT 1 - Pass Details

Date: 24 January 2021
Orbit: 784 x 796 km, 98.9° (Epoch: 05 March)

Event Time Altitude Azimuth Distance (km) Brightness Sun altitude
Rises 18:19:36 0° 19° (NNE) 3,291 10.8 -6.5°
Reaches altitude 10° 18:21:56 10° 17° (NNE) 2,359 10.0 -6.3°
Maximum altitude 18:27:05 66° 296° (WNW) 862 7.7 -5.7°
Drops below altitude 10° 18:32:13 10° 216° (SW) 2,349 10.1 -5.2°
Sets 18:34:33 0° 213° (SSW) 3,276 10.9 -5.0°
